TimeCDT,TemperatureF,Dew PointF,Humidity,Sea Level PressureIn,VisibilityMPH,Wind Direction,Wind SpeedMPH,Gust SpeedMPH,PrecipitationIn,Events,Conditions,WindDirDegrees,DateUTC
12:53 AM,66.0,52.0,60,29.73,10.0,WSW,11.5,-,N/A,,Partly Cloudy,250,2013-09-24 05:53:00
1:53 AM,63.0,52.0,67,29.74,10.0,WSW,10.4,-,N/A,,Clear,250,2013-09-24 06:53:00
2:53 AM,62.1,52.0,70,29.75,10.0,WSW,11.5,-,N/A,,Clear,250,2013-09-24 07:53:00
3:53 AM,62.1,52.0,70,29.75,10.0,West,12.7,-,N/A,,Clear,260,2013-09-24 08:53:00
4:53 AM,62.1,52.0,70,29.75,10.0,West,12.7,-,N/A,,Clear,260,2013-09-24 09:53:00
5:53 AM,62.1,52.0,70,29.77,10.0,West,13.8,-,N/A,,Clear,280,2013-09-24 10:53:00
6:53 AM,61.0,52.0,72,29.79,10.0,WNW,17.3,-,N/A,,Clear,290,2013-09-24 11:53:00
7:53 AM,61.0,52.0,72,29.82,10.0,WNW,20.7,28.8,N/A,,Clear,300,2013-09-24 12:53:00
8:53 AM,64.0,53.1,67,29.83,10.0,NW,24.2,35.7,N/A,,Clear,310,2013-09-24 13:53:00
9:53 AM,68.0,55.0,63,29.85,10.0,NW,24.2,33.4,N/A,,Clear,320,2013-09-24 14:53:00
10:53 AM,72.0,55.0,55,29.87,10.0,NW,24.2,33.4,N/A,,Partly Cloudy,320,2013-09-24 15:53:00
11:53 AM,73.0,55.9,55,29.88,10.0,NNW,21.9,31.1,N/A,,Mostly Cloudy,330,2013-09-24 16:53:00
12:53 PM,75.9,55.9,50,29.89,10.0,NNW,20.7,26.5,N/A,,Mostly Cloudy,330,2013-09-24 17:53:00
1:53 PM,75.9,55.0,48,29.89,10.0,NW,18.4,27.6,N/A,,Overcast,310,2013-09-24 18:53:00
2:53 PM,77.0,54.0,45,29.88,10.0,NNW,20.7,26.5,N/A,,Mostly Cloudy,330,2013-09-24 19:53:00
3:53 PM,75.9,54.0,46,29.88,10.0,NNW,17.3,24.2,N/A,,Mostly Cloudy,340,2013-09-24 20:53:00
4:53 PM,75.9,54.0,46,29.88,10.0,NNW,16.1,-,N/A,,Mostly Cloudy,340,2013-09-24 21:53:00
5:53 PM,75.0,54.0,48,29.88,10.0,North,13.8,-,N/A,,Partly Cloudy,360,2013-09-24 22:53:00
6:53 PM,73.0,54.0,51,29.89,10.0,NNE,8.1,-,N/A,,Partly Cloudy,20,2013-09-24 23:53:00
7:53 PM,69.1,55.0,61,29.90,10.0,NNE,4.6,-,N/A,,Clear,30,2013-09-25 00:53:00
8:53 PM,66.9,55.0,66,29.91,10.0,NNE,3.5,-,N/A,,Clear,30,2013-09-25 01:53:00
9:53 PM,64.0,54.0,70,29.91,10.0,Calm,Calm,-,N/A,,Clear,0,2013-09-25 02:53:00
10:53 PM,60.1,53.1,78,29.91,10.0,Calm,Calm,-,N/A,,Clear,0,2013-09-25 03:53:00
11:53 PM,59.0,53.1,81,29.91,10.0,Calm,Calm,-,N/A,,Clear,0,2013-09-25 04:53:00